Location: *
(37.5724°S, 58.0067°E)
Time: 11:24:43
(UTC+00:00)

Timation 2 Rocket - Pass Details

Date: 26 September 2020
Orbit: 905 x 1076 km, 70.0° (Epoch: 29 October)

Event Time Altitude Azimuth Distance (km) Brightness Sun altitude
Exits shadow 23:00:24 69° 187° (S) 1,157 4.3 -32.6°
Drops below altitude 10° 23:06:31 10° 159° (SSE) 2,925 7.1 -31.5°
Sets 23:09:09 0° 157° (SSE) 3,873 7.9 -31.1°
